Athens, TN

5:22 PM EST on January 20, 2017 (GMT -0500)
McMinn County

Weather History for KMMI - January, 2015

Change the Weather History Date:

Sunday, January 4, 2015

  Actual Average Record
Temperature  
Mean Temperature 50 °F -  
Max Temperature 60 °F 49 °F 60 °F (2015)
Min Temperature 39 °F 29 °F 12 °F (2014)
Degree Days  
Heating Degree Days 16    
Moisture  
Dew Point 46 °F    
Average Humidity 77    
Maximum Humidity 100    
Minimum Humidity 51    
Precipitation  
Precipitation 0.00 in - - ()
Sea Level Pressure  
Sea Level Pressure 30.11 in    
Wind  
Wind Speed 5 mph (WSW)    
Max Wind Speed 16 mph    
Max Gust Speed -    
Visibility 9 miles    
Events      
Averages and records for this station are not official NWS values.
T = Trace of Precipitation, MM = Missing Value Source: NWS Daily Summary

Daily Weather History Graph

Daily Weather History Graph

Search for Another Location

Airport or City:

Trip Planner

Search our weather history database for the weather conditions in past years. The results will help you decide how hot, cold, wet, or windy it might be!

Date:

Astronomy

Jan. 04, 2015 Rise Set
Actual Time 7:47 AM EST 5:38 PM EST
Civil Twilight 7:19 AM EST 6:06 PM EST
Nautical Twilight 6:47 AM EST 6:38 PM EST
Astronomical Twilight 6:17 AM EST 7:09 PM EST
Moon 5:35 PM EST (1/4) 7:01 AM EST (1/4)
Length of Visible Light 10h 47m
Length of Day
9h 51m
Full, 100% of the Moon is Illuminated
Jan 4
Full
Jan 4
Full
Jan 13
Last Quarter
Jan 20
New
Jan 26
First Quarter

Hourly Weather History & Observations

Time (EST) Temp. Windchill Dew Point Humidity Pressure Visibility Wind Dir Wind Speed Gust Speed Precip Events Conditions
12:35 AM 55.4 °F - 55.4 °F 100% 30.04 in 8.0 mi Calm Calm - N/A   Overcast
1:35 AM 55.4 °F - 53.6 °F 94% 30.02 in 8.0 mi Calm Calm - N/A   Mostly Cloudy
1:55 AM 53.6 °F - 53.6 °F 100% 30.01 in 5.0 mi Calm Calm - N/A   Mostly Cloudy
2:15 AM 53.6 °F - 53.6 °F 100% 30.01 in 10.0 mi Calm Calm - N/A   Mostly Cloudy
2:35 AM 53.6 °F - 53.6 °F 100% 30.02 in 2.0 mi Calm Calm - N/A   Overcast
2:55 AM 53.6 °F - 53.6 °F 100% 30.00 in 3.0 mi Calm Calm - N/A   Mostly Cloudy
3:15 AM 53.6 °F - 53.6 °F 100% 30.01 in 2.0 mi Calm Calm - N/A   Overcast
3:35 AM 55.4 °F - 55.4 °F 100% 30.00 in 6.0 mi Variable 3.5 mph - N/A   Mostly Cloudy
3:55 AM 57.2 °F - 57.2 °F 100% 29.99 in 6.0 mi Variable 5.8 mph - N/A   Overcast
4:15 AM 57.2 °F - 57.2 °F 100% 30.00 in 6.0 mi Variable 4.6 mph - N/A   Mostly Cloudy
4:35 AM 57.2 °F - 57.2 °F 100% 29.98 in 6.0 mi South 6.9 mph - N/A   Overcast
4:55 AM 57.2 °F - 57.2 °F 100% 29.97 in 7.0 mi South 8.1 mph - N/A   Overcast
5:15 AM 57.2 °F - 57.2 °F 100% 29.97 in 7.0 mi South 8.1 mph - N/A   Mostly Cloudy
5:35 AM 57.2 °F - 57.2 °F 100% 29.94 in 9.0 mi Variable 6.9 mph - N/A   Mostly Cloudy
5:55 AM 59.0 °F - 55.4 °F 88% 29.91 in 10.0 mi SSE 10.4 mph - N/A   Mostly Cloudy
6:15 AM 59.0 °F - 55.4 °F 88% 29.94 in 10.0 mi SSW 5.8 mph - N/A   Partly Cloudy
6:35 AM 59.0 °F - 55.4 °F 88% 29.95 in 10.0 mi SSW 8.1 mph - N/A   Scattered Clouds
6:55 AM 59.0 °F - 55.4 °F 88% 29.96 in 10.0 mi SW 5.8 mph - N/A   Mostly Cloudy
7:15 AM 60.8 °F - 55.4 °F 82% 29.97 in 10.0 mi South 8.1 mph - N/A   Mostly Cloudy
7:35 AM 59.0 °F - 55.4 °F 88% 29.98 in 10.0 mi Variable 5.8 mph - N/A   Mostly Cloudy
7:55 AM 59.0 °F - 55.4 °F 88% 29.99 in 10.0 mi Variable 5.8 mph - N/A   Mostly Cloudy
8:15 AM 60.8 °F - 55.4 °F 82% 30.00 in 10.0 mi Variable 5.8 mph - N/A   Mostly Cloudy
8:35 AM 60.8 °F - 55.4 °F 82% 30.00 in 10.0 mi Variable 6.9 mph - N/A   Mostly Cloudy
8:55 AM 60.8 °F - 55.4 °F 82% 30.01 in 10.0 mi SSW 8.1 mph - N/A   Mostly Cloudy
9:15 AM 60.8 °F - 55.4 °F 82% 30.01 in 10.0 mi SSW 4.6 mph - N/A   Scattered Clouds
9:35 AM 60.8 °F - 55.4 °F 82% 30.03 in 10.0 mi Variable 4.6 mph - N/A   Scattered Clouds
9:55 AM 60.8 °F - 55.4 °F 82% 30.02 in 10.0 mi Variable 6.9 mph - N/A   Partly Cloudy
10:15 AM 60.8 °F - 57.2 °F 88% 30.03 in 10.0 mi Variable 6.9 mph - N/A   Partly Cloudy
10:35 AM 60.8 °F - 57.2 °F 88% 30.02 in 10.0 mi SSW 8.1 mph - N/A   Scattered Clouds
10:55 AM 60.8 °F - 57.2 °F 88% 30.02 in 10.0 mi SSW 9.2 mph - N/A   Partly Cloudy
11:15 AM 60.8 °F - 57.2 °F 88% 30.03 in 10.0 mi West 10.4 mph - N/A   Mostly Cloudy
11:35 AM 57.2 °F - 50.0 °F 77% 30.03 in 10.0 mi WSW 10.4 mph - N/A   Overcast
11:55 AM 60.8 °F - 48.2 °F 63% 30.03 in 10.0 mi WSW 16.1 mph - N/A   Scattered Clouds
12:15 PM 60.8 °F - 44.6 °F 55% 30.03 in 10.0 mi West 12.7 mph - N/A   Mostly Cloudy
12:35 PM 59.0 °F - 44.6 °F 59% 30.03 in 10.0 mi WSW 12.7 mph - N/A   Mostly Cloudy
12:55 PM 59.0 °F - 44.6 °F 59% 30.02 in 10.0 mi WSW 16.1 mph - N/A   Scattered Clouds
1:15 PM 60.8 °F - 44.6 °F 55% 30.02 in 10.0 mi WSW 10.4 mph - N/A   Partly Cloudy
1:35 PM 59.0 °F - 44.6 °F 59% 30.03 in 10.0 mi WSW 9.2 mph - N/A   Scattered Clouds
1:55 PM 59.0 °F - 44.6 °F 59% 30.04 in 10.0 mi WSW 9.2 mph - N/A   Partly Cloudy
2:15 PM 57.2 °F - 42.8 °F 59% 30.06 in 10.0 mi West 10.4 mph - N/A   Partly Cloudy
2:35 PM 57.2 °F - 42.8 °F 59% 30.07 in 10.0 mi West 10.4 mph - N/A   Partly Cloudy
2:55 PM 55.4 °F - 42.8 °F 63% 30.09 in 10.0 mi West 12.7 mph - N/A   Partly Cloudy
3:15 PM 55.4 °F - 41.0 °F 58% 30.10 in 10.0 mi WSW 13.8 mph - N/A   Clear
3:35 PM 55.4 °F - 37.4 °F 51% 30.12 in 10.0 mi West 11.5 mph - N/A   Clear
3:55 PM 53.6 °F - 37.4 °F 54% 30.14 in 10.0 mi West 12.7 mph - N/A   Scattered Clouds
4:15 PM 51.8 °F - 37.4 °F 58% 30.17 in 10.0 mi West 9.2 mph - N/A   Mostly Cloudy
4:35 PM 50.0 °F - 35.6 °F 58% 30.19 in 10.0 mi West 8.1 mph - N/A   Mostly Cloudy
4:55 PM 48.2 °F - 33.8 °F 58% 30.21 in 10.0 mi WNW 11.5 mph - N/A   Mostly Cloudy
5:15 PM 48.2 °F - 32.0 °F 54% 30.24 in 10.0 mi West 16.1 mph - N/A   Scattered Clouds
5:35 PM 46.4 °F 41.5 °F 32.0 °F 57% 30.25 in 10.0 mi West 10.4 mph - N/A   Mostly Cloudy
5:55 PM 46.4 °F 44.3 °F 32.0 °F 57% 30.26 in 10.0 mi Variable 4.6 mph - N/A   Mostly Cloudy
6:15 PM 46.4 °F 42.4 °F 32.0 °F 57% 30.27 in 10.0 mi West 8.1 mph - N/A   Overcast
6:35 PM 46.4 °F 43.5 °F 32.0 °F 57% 30.26 in 10.0 mi WSW 5.8 mph - N/A   Overcast
6:55 PM 46.4 °F 42.9 °F 33.8 °F 62% 30.28 in 10.0 mi WNW 6.9 mph - N/A   Overcast
7:15 PM 44.6 °F 42.2 °F 33.8 °F 66% 30.27 in 10.0 mi West 4.6 mph - N/A   Overcast
7:35 PM 44.6 °F 41.4 °F 33.8 °F 66% 30.28 in 10.0 mi WNW 5.8 mph - N/A   Overcast
7:55 PM 44.6 °F 41.4 °F 33.8 °F 66% 30.30 in 10.0 mi Variable 5.8 mph - N/A   Scattered Clouds
8:15 PM 42.8 °F 39.3 °F 33.8 °F 70% 30.31 in 10.0 mi West 5.8 mph - N/A   Clear
8:35 PM 42.8 °F 41.1 °F 33.8 °F 70% 30.33 in 10.0 mi Variable 3.5 mph - N/A   Clear
8:55 PM 42.8 °F 39.3 °F 33.8 °F 70% 30.33 in 10.0 mi West 5.8 mph - N/A   Scattered Clouds
9:15 PM 42.8 °F 38.0 °F 33.8 °F 70% 30.34 in 10.0 mi WNW 8.1 mph - N/A   Mostly Cloudy
9:35 PM 42.8 °F 38.0 °F 33.8 °F 70% 30.35 in 10.0 mi West 8.1 mph - N/A   Overcast
9:55 PM 42.8 °F 39.3 °F 33.8 °F 70% 30.37 in 10.0 mi Variable 5.8 mph - N/A   Overcast
10:15 PM 41.0 °F 36.4 °F 33.8 °F 76% 30.37 in 10.0 mi WNW 6.9 mph - N/A   Overcast
10:35 PM 41.0 °F 37.1 °F 33.8 °F 76% 30.37 in 10.0 mi West 5.8 mph - N/A   Overcast
10:55 PM 39.2 °F 35.9 °F 32.0 °F 75% 30.38 in 10.0 mi West 4.6 mph - N/A   Overcast
11:15 PM 39.2 °F 35.0 °F 33.8 °F 81% 30.38 in 10.0 mi Variable 5.8 mph - N/A   Overcast
11:35 PM 39.2 °F 33.6 °F 33.8 °F 81% 30.39 in 10.0 mi WNW 8.1 mph - N/A   Overcast
11:55 PM 39.2 °F 33.6 °F 33.8 °F 81% 30.39 in 10.0 mi NNW 8.1 mph - N/A   Overcast